Home > Weather > Northampton > Past weeks

Flag for United Kingdom Weather for the Past 2 Weeks in Northampton, England, United Kingdom

Now
52 °F

Rain showers. Partly sunny.


Feels Like: 46 °F
Forecast: 38 / 55 °F
Wind: 17 mph from West

Location: Cranfield

Current Time: May 2, 2016 at 8:33:19 PM

Latest Report: May 2, 2016 at 5:20 PM


Visibility: 3 mi

Pressure: 30.01 "Hg

Humidity: 88%

Dew Point: 48 °F

Location of NorthamptonLocation

Historic Weather in Northampton — Graph

°F

Northampton Temperature Yesterday

Maximum temperature yesterday: 59 °F (at 2:20 PM)
Minimum temperature yesterday: 46 °F (at 8:50 AM)
Average temperature yesterday: 55 °F

High & Low Weather Summary for the Past Weeks

 TemperatureHumidityPressure
High64 °F (May 2, 12:50 PM)100% (Apr 20, 7:50 AM)30.45 "Hg (Apr 20, 7:50 AM)
Low36 °F (Apr 26, 7:20 AM)37% (Apr 27, 2:20 PM)29.71 "Hg (Apr 25, 2:20 PM)
Average49 °F67%30.07 "Hg
* Reported Apr 17 5:20 PM — May 2 5:20 PM, Northampton, Weather by CustomWeather, © 2016

Note: Actual official high and low records may vary slightly from our data, if they occured in-between our weather recording intervals... More about our weather records

Advertising

Northampton Weather History for the Previous 24 Hours

Scroll right to see more
 ConditionsComfort  
Time TempWeatherWind HumidityBarometerVisibility
5:20 PM
Mon, May 2
52 °FRain showers. Partly sunny.17 mph88%30.01 "Hg3 mi
4:50 PM55 °FRain showers. Partly sunny.21 mph88%30.01 "Hg1 mi
4:20 PM57 °FLight rain. Partly sunny.21 mph82%29.98 "HgN/A
3:50 PM59 °FPartly sunny.22 mph72%29.98 "HgN/A
3:20 PM59 °FLight rain. Partly sunny.22 mph72%30.01 "HgN/A
2:50 PM61 °FLight rain. Partly sunny.24 mph63%30.01 "HgN/A
2:20 PM61 °FPartly sunny.23 mph63%30.01 "HgN/A
1:50 PM63 °FPartly sunny.21 mph59%30.01 "HgN/A
1:20 PM64 °FScattered clouds.23 mph56%30.01 "HgN/A
12:50 PM64 °FScattered clouds.25 mph60%30.04 "HgN/A
12:20 PM63 °FScattered clouds.22 mph64%30.04 "HgN/A
11:50 AM61 °FPassing clouds.23 mph68%30.04 "HgN/A
11:20 AM59 °FPassing clouds.21 mph72%30.07 "HgN/A
10:20 AM59 °FPassing clouds.21 mph72%30.07 "HgN/A
9:50 AM57 °FScattered clouds.20 mph77%30.09 "HgN/A
9:20 AM55 °FScattered clouds.22 mph82%30.09 "HgN/A
8:50 AM55 °FScattered clouds.18 mph88%30.09 "HgN/A
8:20 AM54 °FPartly sunny.16 mph88%30.09 "HgN/A
Weather by CustomWeather, © 2016

See weather overviewHow to use our weather pages